Carbondale, IL

12:10 AM CDT on April 25, 2017 (GMT -0500)
Southern Illinois

Weather History for KMDH - May, 2013

Change the Weather History Date:

Friday, May 24, 2013

  Actual Average Record
Temperature  
Mean Temperature 56 °F -  
Max Temperature 70 °F 79 °F 97 °F (1911)
Min Temperature 44 °F 56 °F 42 °F (1951)
Degree Days  
Heating Degree Days 8    
Growing Degree Days 6 (Base 50)    
Moisture  
Dew Point 42 °F    
Average Humidity 62    
Maximum Humidity 93    
Minimum Humidity 36    
Precipitation  
Precipitation 0.00 in - - ()
Sea Level Pressure  
Sea Level Pressure 30.32 in    
Wind  
Wind Speed 6 mph (NE)    
Max Wind Speed 13 mph    
Max Gust Speed 21 mph    
Visibility 10 miles    
Events      
Averages and records for this station are not official NWS values.
T = Trace of Precipitation, MM = Missing Value Source: NWS Daily Summary

Daily Weather History Graph

Daily Weather History Graph

Search for Another Location

Airport or City:

Trip Planner

Search our weather history database for the weather conditions in past years. The results will help you decide how hot, cold, wet, or windy it might be!

Date:

Astronomy

May. 24, 2013 Rise Set
Actual Time 5:40 AM CDT 8:07 PM CDT
Civil Twilight 5:10 AM CDT 8:37 PM CDT
Nautical Twilight 4:33 AM CDT 9:15 PM CDT
Astronomical Twilight 3:51 AM CDT 9:56 PM CDT
Moon 7:50 PM CDT (5/24) 5:11 AM CDT (5/24)
Length of Visible Light 15h 27m
Length of Day
14h 27m
Full, 100% of the Moon is Illuminated
May 24
Full
May 24
Full
May 31
Last Quarter
Jun 8
New
Jun 16
First Quarter

Hourly Weather History & Observations

Time (CDT) Temp. Windchill Dew Point Humidity Pressure Visibility Wind Dir Wind Speed Gust Speed Precip Events Conditions
12:52 AM 53.1 °F - 46.0 °F 77% 30.22 in 10.0 mi NE 12.7 mph 20.7 mph N/A   Clear
1:52 AM 51.1 °F - 41.0 °F 68% 30.25 in 10.0 mi NE 5.8 mph - N/A   Clear
2:52 AM 48.0 °F - 41.0 °F 77% 30.26 in 10.0 mi ENE 3.5 mph - N/A   Clear
3:52 AM 46.0 °F 43.1 °F 39.9 °F 79% 30.27 in 10.0 mi NE 5.8 mph - N/A   Clear
4:52 AM 45.0 °F 41.2 °F 37.9 °F 76% 30.29 in 10.0 mi NE 6.9 mph - N/A   Clear
5:52 AM 44.1 °F 41.5 °F 39.9 °F 85% 30.33 in 10.0 mi North 4.6 mph - N/A   Clear
6:52 AM 46.9 °F - 39.0 °F 74% 30.34 in 10.0 mi NNE 8.1 mph - N/A   Clear
7:52 AM 50.0 °F - 39.0 °F 66% 30.37 in 10.0 mi NE 4.6 mph - N/A   Clear
8:52 AM 53.1 °F - 39.9 °F 61% 30.39 in 10.0 mi NE 5.8 mph - N/A   Clear
9:52 AM 55.9 °F - 41.0 °F 57% 30.39 in 10.0 mi NW 8.1 mph - N/A   Clear
10:52 AM 59.0 °F - 42.1 °F 53% 30.39 in 10.0 mi Variable 5.8 mph - N/A   Clear
11:52 AM 62.1 °F - 42.1 °F 48% 30.39 in 10.0 mi NNE 6.9 mph - N/A   Clear
12:52 PM 64.0 °F - 39.9 °F 41% 30.38 in 10.0 mi Variable 4.6 mph - N/A   Clear
1:52 PM 64.9 °F - 41.0 °F 42% 30.38 in 10.0 mi Calm Calm - N/A   Clear
2:52 PM 66.9 °F - 41.0 °F 39% 30.36 in 10.0 mi East 5.8 mph - N/A   Clear
3:52 PM 68.0 °F - 41.0 °F 37% 30.33 in 10.0 mi ENE 8.1 mph - N/A   Clear
4:52 PM 69.1 °F - 41.0 °F 36% 30.31 in 10.0 mi ENE 3.5 mph - N/A   Clear
5:52 PM 69.1 °F - 42.1 °F 38% 30.30 in 10.0 mi Calm Calm - N/A   Clear
6:52 PM 66.9 °F - 45.0 °F 45% 30.28 in 10.0 mi Calm Calm - N/A   Clear
7:52 PM 62.1 °F - 48.0 °F 60% 30.27 in 10.0 mi ENE 3.5 mph - N/A   Clear
8:52 PM 55.9 °F - 46.0 °F 69% 30.28 in 10.0 mi Calm Calm - N/A   Clear
9:52 PM 53.1 °F - 48.0 °F 83% 30.30 in 10.0 mi Calm Calm - N/A   Clear
10:52 PM 48.9 °F - 46.0 °F 90% 30.33 in 10.0 mi Calm Calm - N/A   Clear
11:52 PM 48.0 °F - 46.0 °F 93% 30.32 in 10.0 mi Calm Calm - N/A   Clear